EHI
0 0 0 0 0 0 0 0 0 1 4 8 12 14 16 16 17 20 24 27 33 44 54 57 58 60 58 58 63 64 60 55 51 48 47 47 45 43 41 38 35 37 39 37
0 0 0 0 0 0 1 1 1 1 4 9 13 17 19 20 21 24 27 29 34 44 53 56 56 56 54 54 59 62 61 58 55 52 51 50 47 43 41 40 39 38 37 36
0 0 0 0 1 1 2 3 3 4 6 11 16 21 23 25 25 28 30 33 37 43 49 51 50 49 48 48 52 56 59 60 57 53 52 52 48 43 42 43 43 40 37 35
0 0 0 1 2 3 4 5 6 7 9 12 16 20 23 26 28 30 33 37 40 40 40 41 42 44 45 46 48 51 54 56 55 50 50 51 49 46 46 45 44 41 39 38
0 0 1 2 4 5 4 5 7 8 9 11 14 16 19 22 26 29 31 37 39 35 34 38 41 44 46 47 47 48 49 50 50 48 48 50 50 50 50 48 45 42 39 38
0 0 1 3 5 5 4 5 8 9 9 11 13 14 16 19 22 25 28 34 35 32 32 39 45 47 48 46 43 44 45 44 45 46 47 48 50 51 51 49 46 41 37 35
0 1 2 3 5 7 7 7 9 10 10 12 14 16 17 20 22 24 29 33 34 32 34 40 44 47 48 46 42 43 43 41 40 41 42 43 47 50 51 47 43 40 37 34
0 1 2 2 4 7 9 9 8 8 10 13 15 16 17 20 23 26 30 32 32 34 37 40 43 45 48 50 49 48 47 43 40 40 39 39 43 46 47 44 42 41 38 34
0 0 1 1 2 4 6 7 6 6 8 11 13 14 16 18 21 25 27 28 29 33 36 39 43 45 49 53 55 54 51 48 45 43 41 40 41 41 41 41 39 38 36 33
0 0 0 0 1 1 2 2 3 3 5 7 9 12 15 19 22 24 25 25 28 32 33 35 41 44 46 50 51 51 50 48 47 44 40 40 39 36 35 35 35 34 33 33
0 0 0 0 0 0 0 0 1 2 4 5 7 11 16 20 23 24 22 22 26 30 31 31 35 38 40 43 45 44 43 43 42 39 37 36 35 32 28 27 27 27 29 31
0 0 0 0 0 0 0 1 2 3 5 6 8 12 16 21 24 23 20 20 22 25 27 28 28 29 33 36 39 41 41 38 35 34 34 35 34 29 23 18 14 14 18 21
0 0 0 0 0 0 0 1 2 3 5 8 11 14 17 20 23 22 20 18 16 18 21 24 24 25 27 30 35 39 37 32 29 29 32 34 34 31 26 20 12 7 6 6
0 0 0 0 0 0 0 1 2 3 4 7 11 13 15 17 19 19 17 14 11 11 16 20 22 24 25 27 30 32 28 24 21 23 27 30 30 31 30 28 23 15 7 3
0 0 0 0 0 0 0 1 2 3 4 5 7 10 13 14 14 13 11 9 9 10 12 15 19 23 26 27 27 25 20 17 17 18 21 24 25 25 27 29 29 25 17 11
0 0 0 0 0 0 0 1 3 3 3 3 5 8 11 11 9 8 7 7 9 10 10 12 15 21 26 28 27 23 18 14 14 16 18 21 22 21 21 24 27 27 23 19
0 0 0 0 0 0 0 1 3 3 3 3 5 7 8 7 6 5 5 6 8 9 9 10 14 20 24 26 26 22 16 13 13 15 18 20 21 20 18 19 23 25 23 20
1 1 1 2 2 1 0 0 1 3 4 4 5 6 6 5 4 4 5 7 8 9 9 9 11 16 19 21 22 19 15 13 14 16 18 19 19 19 18 17 19 22 21 18
2 2 3 3 2 1 0 0 1 3 5 5 4 6 7 6 5 6 8 10 9 8 8 8 8 10 12 14 16 16 15 14 16 16 16 16 16 16 16 16 17 20 21 19
3 2 2 2 2 1 1 1 3 5 6 5 5 6 6 6 6 9 10 9 7 6 6 7 7 6 7 8 10 11 12 13 15 15 15 14 13 12 13 15 17 20 22 23
2 2 2 2 2 2 2 3 5 6 6 6 6 5 5 5 6 8 8 6 5 5 4 4 5 4 4 5 5 6 8 10 13 14 14 14 13 12 13 15 17 19 21 22
1 2 2 2 3 3 3 4 6 6 7 7 6 5 5 5 5 6 6 5 4 3 2 1 2 2 1 2 3 4 5 8 11 13 13 14 15 14 14 15 16 17 17 18
1 1 1 2 3 4 3 4 6 6 7 7 6 5 4 4 3 3 3 3 2 1 1 1 1 0 0 0 1 2 4 6 9 11 12 13 15 15 15 15 16 14 13 12
3 3 2 2 3 4 4 4 5 6 6 6 5 5 4 3 2 1 1 1 1 0 0 0 0 0 0 1 2 3 3 4 6 8 8 9 11 12 13 14 14 12 9 8
5 4 4 3 3 4 3 3 4 4 4 4 4 4 4 3 1 0 0 0 0 0 0 0 0 0 1 2 3 2 2 1 2 3 4 5 6 7 10 11 11 11 9 7
4 5 5 4 3 3 2 2 1 2 2 2 3 3 3 2 1 0 1 0 0 1 1 1 0 0 0 1 1 1 1 0 1 1 2 3 3 5 7 8 9 10 10 9
4 5 6 5 3 2 1 1 0 0 1 1 1 1 1 1 0 0 1 0 1 2 2 2 1 0 0 0 0 0 0 0 1 3 3 3 3 4 5 7 10 11 11 10
Wind_Speed
14 13 11 12 13 12 12 12 11 9 8 6 2 1 2 3 3 2 3 3 4 4 5 5 5 5 5 4 5 6 6 7 6 6 6 5 5 4 5 5 6 5 4 4
14 15 15 14 14 14 13 11 9 8 7 2 2 3 3 4 3 3 2 2 2 4 5 5 5 5 4 4 4 5 6 6 5 5 5 5 5 6 5 5 5 4 5 5
13 15 16 16 12 12 10 7 7 6 4 2 3 4 5 6 5 5 3 3 3 2 3 4 5 5 5 4 5 6 6 5 6 5 5 5 6 6 6 5 5 5 5 5
12 14 18 12 8 7 7 7 6 4 1 3 3 4 7 8 7 6 5 4 3 1 1 2 3 4 5 5 4 5 6 5 5 5 5 5 5 5 5 5 5 5 5 5
11 14 15 12 7 7 5 5 7 4 2 1 2 3 6 7 6 5 5 5 4 3 1 0 2 2 3 5 5 5 6 5 5 5 5 5 5 5 4 5 5 5 5 5
11 14 14 7 6 8 7 4 5 5 4 2 2 1 3 5 5 5 4 4 4 4 2 2 2 2 1 3 4 4 5 5 5 5 5 5 5 5 4 4 5 5 5 5
12 14 9 8 9 8 7 3 6 5 4 4 4 4 3 4 4 4 4 5 5 5 3 3 2 2 2 2 3 3 4 4 4 4 5 5 4 4 4 4 5 5 5 5
10 11 6 8 7 6 5 5 5 5 5 5 4 4 4 4 4 4 5 5 5 4 4 2 1 1 2 1 0 1 2 3 3 3 4 5 5 4 4 5 5 5 5 5
5 3 3 5 6 6 6 6 6 5 4 4 4 3 3 3 3 4 4 4 4 4 4 3 2 2 2 2 2 1 0 2 3 3 3 3 4 5 5 5 5 5 5 5
6 5 6 6 7 7 6 6 6 5 5 4 4 3 3 2 2 2 3 3 4 4 3 3 3 2 1 1 1 0 1 2 3 3 3 3 3 4 4 4 5 4 4 4
8 7 8 6 7 7 7 6 6 6 5 5 5 4 4 3 2 2 2 2 3 3 2 2 2 3 2 1 0 1 2 2 3 3 4 3 4 3 4 3 4 4 4 3
7 6 7 8 8 8 8 7 7 6 5 5 5 5 4 3 2 2 2 2 2 3 3 3 2 2 2 1 1 2 3 3 3 3 3 4 4 4 4 5 5 5 4 3
6 8 7 8 9 8 7 7 7 6 5 5 5 5 4 4 3 2 2 2 3 3 3 3 3 3 3 2 2 3 4 4 3 3 3 3 4 4 4 4 4 5 6 5
6 6 7 8 8 8 8 7 6 6 6 5 5 4 4 4 4 3 3 3 4 4 4 4 4 3 3 3 3 4 6 5 4 4 3 4 4 4 4 5 4 4 5 8
6 7 8 8 8 7 7 7 6 5 5 5 5 5 4 4 4 4 4 4 5 5 5 5 4 4 3 5 5 5 6 5 4 4 4 4 4 4 5 5 4 4 3 4
7 8 8 8 8 8 8 7 6 6 5 5 5 5 5 5 4 5 5 5 5 6 5 5 5 5 4 5 5 5 5 7 6 5 5 4 4 5 4 4 4 4 4 4
7 7 8 8 8 8 8 7 6 6 6 6 6 5 5 6 5 5 5 6 6 5 5 6 5 5 5 5 6 5 5 5 7 6 6 5 4 4 3 3 4 3 4 4
7 7 8 8 8 8 7 7 6 6 6 6 6 6 6 5 5 5 5 6 6 6 6 5 4 4 5 5 4 5 5 5 5 6 5 4 4 4 4 4 5 5 3 4
6 6 6 7 7 7 6 7 7 6 6 6 5 5 5 6 6 6 6 6 7 7 6 5 4 5 5 4 5 5 6 6 6 5 5 4 5 5 5 5 4 4 3 3
5 5 6 7 7 7 6 6 6 6 5 5 5 5 6 6 6 5 5 6 5 5 5 4 4 5 5 3 5 6 6 6 6 5 4 4 5 4 4 5 4 3 3 3
6 7 7 7 6 6 6 6 5 5 5 6 6 6 5 5 5 5 5 5 4 4 5 5 4 4 4 4 5 6 6 5 5 4 3 4 4 4 4 3 3 3 3 2
6 6 7 7 7 6 6 5 5 6 5 5 6 5 5 5 5 4 3 3 4 3 4 4 4 3 4 5 5 6 6 5 4 4 4 4 3 3 3 3 3 2 2 2
5 5 6 6 6 6 6 6 5 5 5 5 5 5 5 4 4 4 4 3 3 3 3 3 3 4 5 5 5 5 5 5 5 4 4 3 3 2 2 3 2 1 1 1
5 5 5 6 6 6 6 5 5 4 4 4 5 4 4 3 3 3 3 2 2 3 4 3 2 3 4 4 5 4 4 5 5 4 3 3 2 2 2 2 1 1 1 1
5 5 5 5 5 4 5 5 5 4 4 3 4 3 3 2 2 2 3 3 3 3 4 3 3 4 4 4 4 4 4 4 4 4 3 3 2 2 1 1 1 1 1 1
4 4 4 4 4 4 4 3 3 3 2 3 2 2 2 2 2 2 2 3 3 4 4 2 2 3 4 4 4 4 4 3 3 3 3 3 2 2 1 1 2 1 1 1
4 3 3 3 3 3 3 3 3 3 2 2 2 2 2 3 3 3 3 3 3 3 3 2 2 3 3 3 4 4 3 3 2 2 3 3 2 1 1 1 1 0 0 1
Wind_Direction
282 281 279 278 274 266 261 265 273 286 291 295 297 130 141 100 91 87 104 129 138 139 137 142 143 146 157 174 167 162 166 175 176 180 177 178 175 182 184 191 191 187 191 202
285 281 277 269 268 272 270 269 266 271 279 292 12 67 63 78 85 71 63 80 110 130 138 146 154 159 163 171 161 155 166 173 169 173 174 172 173 178 186 191 189 188 193 200
283 288 288 273 271 276 276 279 285 284 304 27 34 50 43 40 36 48 34 37 41 74 140 155 162 162 168 172 167 164 169 172 168 172 174 176 182 177 181 188 188 193 200 202
274 279 270 279 290 288 290 310 314 309 11 27 68 54 50 50 44 31 16 14 12 19 113 161 166 168 171 170 165 169 170 174 170 175 179 177 180 180 182 185 190 198 205 205
268 266 266 269 293 297 290 304 327 333 10 65 116 96 71 60 48 44 17 2 5 355 3 144 141 146 170 173 172 178 180 182 179 181 182 183 189 188 189 191 197 201 201 205
258 266 270 291 328 321 298 278 2 10 9 24 353 249 65 43 38 36 25 14 7 0 26 37 67 111 147 190 183 188 187 187 182 185 187 186 192 192 195 199 204 205 207 208
254 261 268 323 340 321 291 347 23 25 12 23 32 20 38 32 31 28 24 26 20 15 31 34 44 115 138 170 192 198 188 185 188 192 194 186 189 196 199 207 208 212 212 211
264 264 274 358 352 353 359 3 10 21 15 20 29 19 24 26 25 22 22 22 15 16 20 40 41 107 126 119 306 214 194 184 188 199 214 192 188 197 203 209 216 217 213 217
288 299 5 2 357 356 360 356 354 353 358 2 350 352 2 13 18 18 13 13 3 12 11 8 16 36 76 40 22 13 216 201 204 207 208 189 197 200 206 209 217 221 216 215
299 310 332 346 345 343 347 342 337 341 341 337 327 332 340 356 9 13 6 355 352 355 355 354 354 1 46 43 43 1 248 219 218 213 214 192 207 212 217 217 219 220 222 221
290 302 307 320 338 334 331 332 327 325 325 321 318 321 326 338 350 357 347 343 341 333 336 336 337 341 355 355 323 252 252 241 239 231 214 202 208 218 217 218 214 216 225 221
291 313 310 312 321 324 324 323 321 318 316 313 308 310 318 319 329 335 325 333 330 325 325 324 322 316 313 300 279 257 249 244 247 242 224 217 212 218 223 219 207 202 206 212
319 320 317 316 319 326 322 315 316 313 308 308 310 314 314 311 313 311 311 316 309 304 305 299 286 282 282 274 263 262 266 256 255 257 247 234 223 220 223 217 212 205 201 202
327 321 308 308 312 313 313 309 304 301 303 307 310 311 308 305 310 307 301 304 300 296 291 289 274 268 271 267 257 257 264 260 253 252 256 254 250 243 237 225 213 210 205 203
303 301 299 302 303 303 303 297 288 289 297 300 301 300 301 305 304 303 299 296 294 291 292 292 283 275 269 255 251 254 259 262 258 257 253 251 255 257 252 237 225 207 184 185
298 297 298 299 301 299 299 301 299 294 293 297 303 306 306 305 307 303 300 294 283 283 285 283 275 274 271 260 254 251 250 257 257 260 259 252 244 244 244 241 232 217 205 193
288 294 300 301 298 295 299 305 308 306 301 294 293 294 292 291 289 286 289 291 285 280 276 271 271 277 278 271 262 255 251 250 248 255 253 251 250 247 249 252 248 235 227 193
285 291 296 298 299 295 297 298 296 294 293 291 286 282 283 283 284 289 291 292 291 289 286 280 282 287 280 276 274 270 260 250 240 244 249 250 253 253 250 248 246 237 225 192
286 291 293 290 289 289 291 293 293 294 293 292 291 290 293 290 287 283 285 286 282 281 284 287 288 280 279 283 286 270 266 261 250 242 244 247 249 251 251 247 242 233 221 196
303 302 300 296 291 286 284 287 291 292 291 292 292 289 289 290 293 293 292 286 285 294 301 304 287 279 285 290 285 276 272 272 269 262 250 250 257 260 258 259 250 234 226 210
313 311 307 302 300 297 295 295 296 294 294 295 292 288 290 292 294 292 287 291 304 310 307 301 287 291 293 298 283 277 276 276 275 267 259 253 252 257 258 263 263 258 240 227
308 308 308 310 308 303 301 299 297 293 292 292 292 295 295 292 289 287 283 294 305 321 307 300 297 303 303 292 278 277 275 271 265 262 256 256 257 258 260 262 257 256 242 220
306 308 308 306 305 302 297 297 297 294 292 291 289 293 296 298 297 294 296 310 313 314 300 307 317 317 304 288 283 279 282 282 274 265 261 255 255 255 253 256 249 248 260 249
298 299 299 299 300 299 295 300 301 292 283 281 280 283 285 283 282 287 307 309 309 297 305 316 285 286 285 285 291 290 290 286 283 281 274 268 262 252 247 252 246 225 226 256
296 297 298 299 295 295 300 295 288 281 281 281 278 280 286 301 311 320 324 322 324 299 298 287 258 268 278 288 290 289 287 290 296 299 295 287 268 250 236 249 255 239 226 228
285 283 290 292 295 298 295 297 297 297 295 290 301 319 333 338 328 327 320 314 310 300 301 307 300 279 278 278 274 273 273 276 281 280 279 282 266 257 246 245 250 246 237 230
277 282 286 292 303 311 312 314 308 305 312 325 329 331 334 334 333 338 335 323 316 314 317 316 305 295 295 297 293 289 286 289 287 284 286 282 274 276 279 266 265 280 115 116